Location: Skanderborg
(56.0313°N, 9.9317°E)
Time: 21:52:38
(UTC+00:00)

Cosmos 1271 Rocket - Pass Details

Date: 15 August 2020
Orbit: 499 x 545 km, 81.2° (Epoch: 22 September)

Event Time Altitude Azimuth Distance (km) Brightness Sun altitude
Rises 22:38:30 0° 338° (NNW) 2,626 7.8 -19.6°
Reaches altitude 10° 22:40:48 10° 327° (NNW) 1,741 6.4 -19.7°
Maximum altitude 22:44:07 28° 267° (W) 981 4.1 -19.8°
Enters shadow 22:45:00 26° 242° (WSW) 1,055 4.1 -19.8°
